Flag for U.S.A. Weather past 2 weeks in Bowling Green, Kentucky, U.S.A.

Now
54 °F

Clear.


Feels Like: 54 °F
Forecast: 57 / 79 °F
Wind: No wind

Location: Glasgow Municipal Airport

Current Time: Jul 29, 2014 at 6:23:02 AM

Latest Report: Jul 29, 2014 at 5:55 AM


Visibility: 10 mi

Pressure: 30.06 "Hg

Humidity: 77%

Dew point: 47 °F

Location of Bowling GreenLocation

Historic Weather in Bowling Green — Graph

°F

Bowling Green temperature yesterday

Maximum temperature yesterday: 79 °F (at 3:35 PM)
Minimum temperature yesterday: 62 °F (at 5:35 AM)
Average temperature yesterday: 71 °F

Past Weeks' High & Low Weather Summary

 TemperatureHumidityPressure
High92 °F (Jul 26, 4:15 PM)100% (Jul 14, 9:55 PM)30.16 "Hg (Jul 14, 9:55 PM)
Low51 °F (Jul 16, 4:55 AM)30% (Jul 17, 4:15 PM)29.79 "Hg (Jul 27, 3:35 PM)
Average73 °F73%30.01 "Hg
* Reported Jul 14 5:15 AM — Jul 29 5:15 AM, Bowling Green, Weather by CustomWeather, © 2014

Note: Actual official high and low records may vary slightly from our data, if they occured in-between our weather recording intervals... More about our weather records

Advertising

Bowling Green weather history for previous 24 hours

 ConditionsComfort  
Time TempWeatherWind HumidityBarometerVisibility
5:15 AM
Jul 29
54 °FClear.No wind78%30.05 "Hg10 mi
4:55 AM56 °FClear.6 mph77%30.04 "Hg10 mi
4:35 AM56 °FClear.6 mph78%30.04 "Hg10 mi
4:15 AM56 °FClear.5 mph81%30.04 "Hg10 mi
3:55 AM56 °FClear.6 mph82%30.04 "Hg10 mi
3:35 AM57 °FClear.3 mph82%30.04 "Hg10 mi
3:15 AM58 °FClear.No wind82%30.04 "Hg10 mi
2:55 AM58 °FClear.3 mph83%30.04 "Hg10 mi
2:35 AM60 °FClear.No wind80%30.04 "Hg10 mi
2:15 AM60 °FClear.No wind79%30.04 "Hg10 mi
1:55 AM61 °FClear.3 mph79%30.04 "Hg10 mi
1:35 AM62 °FClear.6 mph77%30.04 "Hg10 mi
1:15 AM63 °FClear.9 mph76%30.04 "Hg10 mi
12:55 AM63 °FClear.6 mph74%30.04 "Hg10 mi
12:15 AM64 °FClear.3 mph71%30.04 "Hg10 mi
11:55 PM
Jul 28
64 °FClear.No wind72%30.04 "Hg10 mi
11:35 PM65 °FClear.3 mph70%30.05 "Hg10 mi
11:15 PM65 °FClear.3 mph69%30.04 "Hg10 mi
10:55 PM67 °FClear.5 mph66%30.04 "Hg10 mi
10:35 PM68 °FPassing clouds.6 mph64%30.04 "Hg10 mi
10:15 PM69 °FOvercast.7 mph64%30.04 "Hg10 mi
9:55 PM69 °FOvercast.5 mph68%30.04 "Hg10 mi
9:35 PM69 °FMostly cloudy.5 mph70%30.03 "Hg10 mi
9:15 PM69 °FMostly cloudy.5 mph70%30.02 "Hg10 mi
8:55 PM69 °FPartly cloudy.3 mph70%30.02 "Hg10 mi
8:35 PM69 °FSunny.3 mph68%30.01 "Hg10 mi
8:15 PM70 °FScattered clouds.3 mph67%30.00 "Hg10 mi
7:55 PM71 °FScattered clouds.5 mph66%30.00 "Hg10 mi
7:35 PM73 °FScattered clouds.3 mph61%30.00 "Hg10 mi
7:15 PM75 °FScattered clouds.5 mph56%30.00 "Hg10 mi
6:55 PM76 °FBroken clouds.8 mph54%29.99 "Hg10 mi
6:35 PM77 °FOvercast.7 mph54%29.99 "Hg10 mi
6:15 PM77 °FMostly cloudy.No wind55%29.99 "Hg10 mi
5:55 PM78 °FBroken clouds.8 mph51%29.99 "Hg10 mi
5:35 PM77 °FScattered clouds.9 mph51%29.99 "Hg10 mi
5:15 PM78 °FBroken clouds.7 mph50%29.99 "Hg10 mi
4:55 PM78 °FBroken clouds.8 mph49%29.99 "Hg10 mi
3:55 PM79 °FScattered clouds.8 mph47%29.99 "Hg10 mi
3:35 PM79 °FScattered clouds.10 mph49%29.99 "Hg10 mi
3:15 PM78 °FBroken clouds.13 mph51%29.99 "Hg10 mi
2:55 PM79 °FScattered clouds.6 mph51%29.99 "Hg10 mi
2:35 PM79 °FScattered clouds.9 mph54%29.99 "Hg10 mi
2:15 PM77 °FBroken clouds.6 mph56%29.99 "Hg10 mi
1:55 PM76 °FBroken clouds.7 mph58%29.99 "Hg10 mi
1:35 PM76 °FCloudy.7 mph59%29.99 "Hg10 mi
1:15 PM76 °FBroken clouds.5 mph57%30.00 "Hg10 mi
12:55 PM76 °FBroken clouds.7 mph58%30.00 "Hg10 mi
12:35 PM77 °FMore clouds than sun.8 mph56%30.00 "Hg10 mi
12:15 PM77 °FBroken clouds.7 mph56%30.00 "Hg10 mi
11:55 AM76 °FBroken clouds.13 mph59%30.01 "Hg10 mi
11:35 AM76 °FBroken clouds.10 mph60%30.01 "Hg10 mi
11:15 AM75 °FMore clouds than sun.7 mph61%30.01 "Hg10 mi
10:55 AM76 °FBroken clouds.10 mph60%30.01 "Hg10 mi
10:15 AM74 °FSunny.10 mph64%30.01 "Hg10 mi
9:55 AM73 °FSunny.8 mph65%30.00 "Hg10 mi
9:35 AM72 °FSunny.8 mph68%29.99 "Hg10 mi
9:15 AM71 °FSunny.7 mph69%29.99 "Hg10 mi
8:55 AM70 °FSunny.7 mph70%29.99 "Hg10 mi
8:35 AM69 °FSunny.8 mph71%29.98 "Hg10 mi
8:15 AM69 °FSunny.10 mph73%29.98 "Hg10 mi
7:55 AM68 °FSunny.7 mph75%29.98 "Hg10 mi
7:35 AM67 °FSunny.7 mph75%29.98 "Hg10 mi
7:15 AM67 °FSunny.8 mph76%29.98 "Hg10 mi
6:55 AM65 °FSunny.3 mph81%29.97 "Hg10 mi
6:35 AM63 °FClear.No wind84%29.97 "Hg10 mi
6:15 AM63 °FClear.No wind82%29.96 "Hg10 mi
Weather by CustomWeather, © 2014

See weather overviewHow to use our weather pages